Location: Argonnex
(45.9500°N, 6.1333°E)
Time: 05:28:34
(UTC+00:00)

Cosmos 2266 Rocket - Pass Details

Date: 09 August 2024
Orbit: 933 x 1008 km, 82.9° (Epoch: 08 September)

Event Time Altitude Azimuth Distance (km) Brightness Sun altitude
Rises 01:15:26 0° 352° (N) 3,602 7.9 -24.7°
Reaches altitude 10° 01:17:56 10° 355° (N) 2,653 7.1 -24.5°
Maximum altitude 01:23:59 74° 80° (E) 977 4.0 -24.1°
Enters shadow 01:26:26 38° 157° (SSE) 1,405 4.5 -23.9°
